Preview of NWS' New Version of Forecast
This preview is not operational and should not be used for support decisions.

Regional Weather Roundup (RWR)

Issued by National Weather Service (NWS)

                            
000
ASCA42 TJSJ 181710
RWRPR 
PUERTO RICO/U.S. VIRGIN ISLANDS HOURLY WEATHER ROUNDUP
NATIONAL WEATHER SERVICE SAN JUAN PR
100 PM AST MON FEB 18 2019

PRZ001>002-007>008-010-181800-
PUERTO RICO
  
CITY           SKY/WX    TMP DP  RH WIND       PRES   REMARKS
SAN JUAN LMM   MOSUNNY   82  68  61 E21       30.14F                  
AGUADILLA      SUNNY     84  75  74 E23       30.14F HX  92           
$$

VIZ001>002-181800-
U.S. VIRGIN ISLANDS
  
CITY           SKY/WX    TMP DP  RH WIND       PRES   REMARKS
CHARLOTTE AMA  MOSUNNY   81  70  69 E15       30.13F                  
CHRISTIANSTED  PTSUNNY   86  70  58 E21G32    30.13F HX  90           
$$

HOURLY WEATHER ROUNDUP FOR THE NEWS MEDIA
  
CITY           SKY/WX    TMP DP  RH WIND       PRES   REMARKS
ORLANDO        CLOUDY    80  72  76 S9        30.13S                  
NEW YORK       PTSUNNY   40  37  89 W15       29.86R WCI  32          
NEWARK         CLOUDY    41  36  82 W13G21    29.86S                  
CHICAGO        PTSUNNY   26  19  74 N10       30.32R WCI  16          
HARTFORD       LGT SNOW  34  33  96 VRB5      29.77F FOG     WCI  30  
BOSTON         LGT SNOW  31  27  85 N13       29.81  FOG     WCI  21  
DALLAS         CLOUDY    38  21  50 N13G24    30.35R WCI  30          
PHILADELPHIA   CLOUDY    45  32  60 W23G33    29.93R                  
LOS ANGELES    MOSUNNY   51  27  39 VRB5      30.07R                  
WASHINGTON DC  PTSUNNY   48  32  53 NW23G32   29.99R